Regional Weather Roundup
Issued by NWS Cleveland, OH

Home | Current Version | Previous Version | Text Only | Print | Product List | Glossary Off
Versions: 1 2 3 4 5 6 7 8 9 10 11 12 13 14 15 16 17 18 19 20 21 22 23 24 25 26 27 28 29 30 31 32 33 34 35 36 37 38 39 40 41 42 43 44 45 46 47 48 49 50

000
ASUS41 KCLE 300112
RWRCLE
OHIO REGIONAL WEATHER ROUNDUP
NATIONAL WEATHER SERVICE WILMINGTON, OH
900 PM EDT SUN MAY 29 2016

NOTE: "FAIR" INDICATES FEW OR NO CLOUDS BELOW 12,000 FEET WITH NO
SIGNIFICANT WEATHER AND/OR OBSTRUCTIONS TO VISIBILITY.

OHZ001>008-015>018-024>027-034-035-043-044-300200-
   NORTHWEST OHIO

CITY           SKY/WX    TMP DP  RH WIND       PRES   REMARKS
DEFIANCE       FAIR      82  52  35 W6        29.95R
FINDLAY        CLOUDY    79  60  52 S9        29.96R
TOLEDO EXPRESS FAIR      80  51  36 W7        29.95R
TOLEDO EXEC    FAIR      80  58  46 W7        29.95R
LIMA           MOCLDY    79  61  53 SW8       29.98R
$$

OHZ009>014-019>023-028>033-038-089-300200-
   NORTHEAST OHIO

CITY           SKY/WX    TMP DP  RH WIND       PRES   REMARKS
CLE-HOPKINS    TSTM      68  61  78 W23G40    30.04R VSB 1
CLE-LAKEFRONT  TSTM      67  62  84 S30G37    30.04R
CUY CO. ARPT   TSTM      75  57  53 N16       30.03R
LORAIN-ELYRIA  MOCLDY    68  61  78 SW7       29.99R
ASHTABULA      FAIR      73  61  65 S10       30.01R
AKRON-CANTON   CLOUDY    71  59  65 S10       30.02S
WOOSTER        LGT RAIN  72  61  68 S10       30.02S
MANSFIELD      FAIR      65  60  84 NW8       30.01S
YOUNGSTOWN     MOCLDY    72  62  71 S7        30.03R
$$

OHZ042-051>053-060>062-070>072-077>081-300200-
  SOUTHWEST OHIO

CITY           SKY/WX    TMP DP  RH WIND       PRES   REMARKS
CINC-COVINGTON FAIR      74  66  76 W7        30.00F
CINC-LUNKEN    FAIR      72  71  97 CALM      29.98F
HAMILTON       FAIR      77  65  66 SW3       29.98F
DAYTON         CLOUDY    72  63  73 SE8       30.00S
WRIGHT-PAT AFB MOCLDY    72  66  83 SE9G18    29.98F THUNDER
DAYTON GENERAL FAIR      73  64  73 E13       29.99S
WILMINGTON     MOCLDY    68  63  84 E10       30.01S THUNDER
$$

OHZ036-037-039>041-045>050-054>059-063>069-073>076-082>088-300200-
  CENTRAL AND SOUTHEAST OHIO

CITY           SKY/WX    TMP DP  RH WIND       PRES   REMARKS
COLUMBUS       LGT RAIN  73  59  61 SW7       30.01R
OSU AIRPORT    FAIR      72  57  59 S7        30.01R
BOLTON FIELD   LGT RAIN  66  62  89 S5        30.01F
RICKENBACK AFB FAIR      68  60  77 W9        30.01R
NEWARK         FAIR      75  63  66 SE5       30.02R
MARION         FAIR      69  64  84 SE7       30.00F
LANCASTER      LGT RAIN  67  61  81 SE14      30.02F
ZANESVILLE     FAIR      71  62  73 SE5       30.04R
NEW PHILLY     FAIR      72  60  66 CALM      30.04S
$$




USA.gov is the U.S. government's official web portal to all federal, state and local government web resources and services.